RH
22 21 23 25 25 25 36 46 57 62 55 63 70 66 63 58 60 61 59 57 58 59 62 68 70 74 78 75 76 52 57 53 63 68 70 65 65 65 68 69 58 61 64 64
23 26 22 29 35 39 44 53 67 62 55 58 62 64 60 57 58 61 58 54 58 58 55 61 66 71 76 74 77 76 75 73 71 75 72 73 74 74 76 75 70 65 72 69
26 24 24 27 38 41 42 50 66 59 59 56 55 61 59 54 52 50 52 54 52 54 53 49 52 59 67 67 69 70 70 73 68 72 80 79 85 78 71 54 49 42 41 40
26 26 28 29 30 28 34 42 52 59 58 64 60 65 64 58 55 51 47 47 46 44 43 42 43 47 52 53 45 45 52 48 44 43 52 58 57 52 48 55 53 38 37 39
28 28 34 39 38 28 36 48 53 54 62 62 62 62 64 59 54 50 50 46 42 41 41 38 38 40 41 44 36 30 28 26 27 29 31 43 51 49 52 54 57 55 49 46
28 24 28 30 40 42 44 49 50 54 56 64 72 63 70 63 57 52 47 41 39 38 37 38 41 44 38 32 28 26 27 26 26 29 31 38 54 57 54 51 53 53 57 60
30 29 28 30 38 43 42 45 63 63 66 78 74 71 67 57 52 51 45 39 38 38 39 39 34 31 32 32 35 33 35 34 36 36 47 54 56 58 58 58 58 66 65 70
39 38 46 46 47 47 46 41 59 60 69 81 66 80 62 53 49 47 40 41 37 34 32 29 30 31 30 34 38 39 37 38 45 55 57 62 65 65 73 78 81 78 80 84
49 59 50 51 54 51 58 59 55 69 70 72 71 80 54 49 41 40 45 38 34 32 30 28 28 32 35 39 40 40 43 43 54 60 71 73 77 85 87 89 89 87 95 93
47 68 56 56 47 51 56 56 64 62 85 84 81 75 66 53 43 54 44 39 35 31 30 30 31 34 37 39 40 42 48 55 61 77 84 83 90 93 96 99 99 100 100 100
46 58 62 53 65 68 62 69 74 70 89 81 82 79 60 56 63 55 43 38 38 37 36 32 32 34 36 35 37 46 56 58 75 91 91 93 93 91 88 92 98 95 96 98
57 68 75 71 64 62 70 71 77 100 92 84 73 76 56 54 51 42 40 39 38 38 35 32 32 33 32 35 40 49 53 72 90 92 92 88 84 85 82 91 98 94 100 100
57 69 82 73 65 67 75 84 73 76 82 83 68 76 56 48 45 44 43 41 40 40 32 31 31 33 34 37 42 52 59 89 95 87 86 86 85 85 86 85 90 99 98 98
63 76 63 56 59 70 84 83 69 56 78 78 78 77 69 63 54 46 45 45 40 35 32 30 31 33 36 41 44 52 64 95 100 100 93 92 92 88 89 96 100 99 97 96
64 80 84 83 79 79 82 77 67 58 58 64 72 78 70 63 59 51 47 45 36 32 29 30 32 33 37 44 46 56 73 97 100 98 99 100 91 83 92 99 98 98 99 99
65 86 74 85 73 72 95 83 79 78 74 75 69 70 60 56 53 55 48 41 35 32 30 31 31 34 41 48 52 67 79 100 100 98 100 93 86 90 98 98 98 99 98 100
74 78 87 94 67 66 78 99 85 80 76 70 69 67 61 59 60 61 47 39 35 32 32 33 34 38 46 52 60 74 97 100 98 99 99 81 83 88 100 97 98 100 98 98
80 83 86 96 81 84 99 82 82 71 66 60 59 61 61 64 60 52 42 37 35 34 34 35 38 45 49 55 64 80 99 98 100 100 96 81 84 92 100 100 100 100 99 97
73 76 93 92 84 99 99 80 77 62 61 57 62 61 60 61 53 50 54 36 36 37 37 39 41 51 55 57 68 84 100 98 100 99 87 82 89 98 99 100 99 100 98 97
69 69 82 89 80 85 77 74 73 72 68 49 63 69 72 67 66 56 52 37 38 38 39 39 46 52 58 61 70 83 100 99 98 99 83 80 88 98 99 100 98 99 98 100
82 87 89 91 88 89 65 74 72 66 64 57 66 70 74 78 74 64 40 42 41 41 39 41 44 54 64 69 68 79 100 99 98 100 89 82 92 99 99 98 98 97 91 89
86 84 83 81 85 92 71 74 67 59 61 66 70 71 78 71 45 43 44 44 42 42 43 45 46 54 63 73 69 71 98 100 99 97 96 89 94 100 100 100 99 98 95 86
88 94 94 80 85 71 73 70 62 65 73 71 74 67 70 50 46 48 48 46 46 45 49 49 53 57 62 69 79 69 84 100 100 98 99 96 98 100 100 100 98 100 90 84
96 91 86 79 80 76 74 68 68 70 75 67 64 59 45 47 48 50 50 49 45 49 53 55 57 60 64 72 76 83 78 95 100 100 99 99 99 98 99 99 99 99 99 92
95 84 76 84 77 75 72 75 79 72 70 59 45 43 44 45 48 52 52 52 51 56 66 65 65 68 71 74 79 78 84 76 100 100 100 100 100 100 100 100 100 100 99 100
88 80 83 87 84 84 82 79 65 60 55 52 49 53 54 50 51 54 57 69 74 75 78 82 87 85 87 84 85 86 83 75 84 100 99 100 100 100 100 100 100 100 100 100
Wind_Speed
3 4 3 3 1 6 10 8 14 6 2 9 10 10 7 5 6 6 5 5 5 3 3 5 7 7 7 7 8 8 11 14 17 16 15 17 19 18 20 23 29 25 24 25
4 4 2 6 9 14 13 17 7 7 7 8 7 8 5 5 3 2 3 3 2 4 5 9 10 10 10 10 14 15 17 16 16 16 17 18 19 22 22 23 24 24 22 22
5 3 2 4 8 13 3 5 7 7 9 9 6 3 2 2 2 2 2 4 4 6 8 10 11 10 12 17 17 17 18 19 21 22 20 22 20 21 20 21 20 22 23 24
6 3 4 5 4 2 3 6 11 18 4 2 2 1 1 3 4 3 3 3 5 7 7 10 11 13 10 12 14 15 15 16 18 19 17 16 16 19 19 18 21 26 26 24
2 3 4 4 1 2 3 10 14 8 5 6 2 2 2 3 1 5 4 4 6 8 7 9 12 12 13 12 12 15 16 16 18 18 17 16 16 17 17 18 18 15 13 13
4 2 2 2 4 4 12 11 7 4 3 2 0 1 2 1 3 5 5 6 7 9 11 14 12 10 10 13 16 17 17 19 20 19 20 18 16 15 14 15 16 15 15 16
3 3 3 1 4 6 4 8 3 3 3 1 2 1 0 3 3 4 6 8 10 10 10 9 11 13 14 17 18 18 18 19 19 20 16 12 14 16 18 18 17 15 16 17
4 2 4 3 2 3 6 2 3 4 3 2 1 2 2 4 7 5 4 6 9 10 9 10 13 14 16 18 18 18 19 20 18 12 13 17 19 16 14 12 14 15 14 14
4 2 1 7 2 1 5 3 3 6 2 3 1 2 4 3 2 5 8 9 10 11 11 11 15 16 16 17 16 19 20 19 12 13 18 21 16 16 14 13 14 16 16 13
4 4 1 1 0 9 1 5 3 2 5 3 2 3 2 1 4 8 9 10 11 12 13 13 17 17 15 15 18 21 21 14 14 19 21 17 17 16 17 17 18 18 16 15
2 2 2 1 3 1 3 3 4 5 1 3 4 1 3 2 4 5 6 8 9 11 12 12 16 15 14 18 21 22 16 16 20 20 19 17 17 19 21 19 18 18 18 17
1 3 3 1 2 2 1 1 3 2 4 1 1 3 6 4 2 3 7 8 10 11 12 14 15 15 17 21 22 20 18 18 18 16 17 19 21 22 21 19 20 18 17 15
4 2 4 2 2 2 2 2 3 4 2 2 3 3 5 3 3 4 6 10 10 11 12 13 16 15 18 21 22 20 17 16 16 16 17 18 21 21 20 21 21 18 14 12
3 3 1 3 2 2 4 4 3 1 2 7 1 4 6 7 7 9 10 10 11 11 12 13 14 16 20 21 25 23 19 17 15 16 18 19 22 23 22 20 18 19 12 16
3 3 4 8 6 6 6 5 3 6 6 3 6 4 7 5 7 9 8 9 11 12 14 14 13 17 21 22 26 24 21 19 17 19 20 19 22 23 21 19 17 14 14 16
2 4 4 10 13 17 16 12 14 12 11 12 9 9 7 5 7 10 9 10 11 13 14 14 16 19 19 23 27 24 22 18 17 20 20 22 22 23 22 22 18 14 15 17
2 5 2 4 6 3 10 7 8 6 6 4 7 4 8 7 9 8 9 9 11 12 13 14 15 18 18 22 24 23 21 15 18 16 18 21 22 21 20 22 16 14 17 17
5 3 2 3 3 3 3 4 2 7 6 6 4 5 5 7 9 2 6 8 10 11 13 15 16 18 17 19 23 21 19 20 15 16 19 20 21 20 19 17 17 15 18 14
4 4 4 2 4 2 1 1 1 2 4 2 5 7 8 10 7 2 9 8 8 10 13 13 16 16 17 18 22 19 14 17 14 16 18 19 19 18 17 17 16 15 15 15
11 7 4 1 3 2 1 1 1 2 3 2 3 7 9 8 8 7 11 10 11 13 14 16 16 16 19 18 19 18 14 15 16 15 16 16 17 20 22 17 15 13 13 12
4 4 4 2 3 1 3 1 1 1 2 4 4 6 8 6 5 7 9 11 11 12 15 17 16 17 19 18 18 19 14 15 12 13 15 17 18 18 17 18 14 13 13 11
3 2 2 0 3 3 1 1 1 0 2 5 5 7 8 7 6 7 8 10 13 14 16 19 17 18 19 19 17 19 17 17 12 13 13 16 18 18 16 15 14 12 12 10
1 0 2 2 2 2 2 1 2 1 3 4 7 9 6 5 6 7 7 10 13 14 15 16 16 18 19 20 17 19 21 16 16 13 14 15 17 19 18 16 16 11 11 11
1 0 1 1 1 2 1 1 5 6 5 7 6 4 6 6 6 7 9 11 12 13 15 15 17 19 20 20 19 17 20 24 16 15 14 14 16 22 20 15 15 12 12 11
1 1 2 2 2 3 4 9 10 8 1 3 7 8 7 6 6 7 8 10 11 13 15 14 16 17 19 19 20 21 19 21 20 17 16 15 13 16 20 16 12 15 12 10
3 3 3 2 1 1 2 8 8 8 8 8 7 8 9 9 7 7 8 9 11 13 14 16 17 18 19 20 21 22 21 19 21 18 18 16 13 14 17 18 15 11 12 17
Wind_Direction
22 92 85 344 282 100 108 111 118 118 335 65 85 95 65 59 74 75 71 63 58 21 308 273 265 265 258 243 226 236 247 258 240 243 254 266 263 271 270 276 280 273 271 271
49 87 66 83 95 107 115 120 102 94 83 93 125 91 61 44 43 11 17 21 349 286 270 267 270 269 264 263 256 267 270 270 261 259 271 270 268 280 279 278 276 276 277 278
121 120 67 111 108 112 103 124 159 132 101 87 125 103 70 34 353 337 309 302 304 299 303 304 296 290 269 269 277 278 280 278 276 277 282 282 280 280 279 279 280 281 282 281
80 16 97 98 87 110 103 144 137 139 139 139 248 192 156 355 328 312 317 307 305 302 303 311 322 312 307 308 307 306 302 304 303 304 297 288 279 276 279 283 287 287 286 284
136 115 99 84 88 136 121 144 136 135 100 138 51 217 95 350 289 335 321 308 315 312 336 318 319 312 309 319 324 324 320 320 318 314 309 299 291 289 291 293 294 294 290 293
86 67 72 105 80 84 131 104 97 80 117 207 295 303 160 201 304 312 322 329 332 337 325 323 323 323 327 333 333 333 330 324 319 313 309 305 301 302 303 301 297 291 289 290
32 2 348 80 113 92 121 143 130 198 203 296 176 117 295 262 264 276 315 330 336 337 337 340 342 339 331 337 336 335 331 324 320 317 317 322 317 306 297 290 285 286 290 291
151 193 4 17 64 138 166 199 168 205 193 144 125 215 158 276 277 261 342 336 346 352 347 341 336 331 336 338 340 340 335 323 322 323 326 324 319 309 302 298 295 289 284 283
142 132 125 60 78 327 155 186 109 108 32 155 168 261 282 295 287 350 359 355 349 344 341 335 332 335 338 345 345 340 332 327 328 332 330 325 324 322 314 312 304 297 293 284
181 123 347 105 278 55 75 128 144 103 156 198 223 253 189 235 321 355 358 346 343 343 343 338 339 344 345 346 341 340 336 335 335 332 333 330 331 327 321 316 309 300 294 292
132 114 162 203 28 184 142 139 72 106 5 153 156 207 219 240 353 339 339 336 342 341 339 341 345 348 351 347 345 340 343 340 336 339 342 337 334 334 327 316 310 311 306 300
64 104 124 121 124 100 80 142 159 162 189 64 75 118 353 303 311 325 336 333 340 343 340 345 351 353 351 347 343 340 336 338 340 339 340 340 333 329 326 319 311 309 299 293
169 95 118 141 176 207 219 112 98 109 117 155 145 144 10 34 354 340 329 338 341 342 346 350 354 350 349 345 341 331 329 339 342 342 342 338 334 330 326 326 324 316 322 315
81 82 355 210 66 119 148 131 143 86 129 139 71 112 17 9 354 348 346 341 343 348 350 355 349 349 347 344 342 338 337 337 338 336 337 333 335 334 329 326 325 324 324 315
64 89 72 53 54 82 84 118 93 90 112 73 138 74 8 346 328 331 325 338 349 349 356 353 349 350 348 347 346 347 346 336 331 344 344 342 338 337 335 327 335 333 328 324
33 110 87 58 83 86 75 58 86 74 77 89 98 66 1 313 351 353 347 350 347 351 353 351 354 349 352 351 350 349 346 341 350 349 348 347 343 345 347 347 341 332 331 330
57 137 114 122 122 67 58 22 58 88 62 58 69 15 338 347 343 344 342 347 351 352 349 356 351 348 351 353 350 352 350 357 6 357 354 354 353 353 356 360 0 348 349 354
109 93 24 102 307 61 37 341 341 88 77 58 44 357 353 332 315 20 15 354 352 352 356 354 348 348 351 353 355 355 1 3 6 358 359 356 357 357 353 352 355 355 355 353
35 108 86 94 62 108 113 335 36 70 66 24 350 351 358 352 345 89 13 8 355 357 357 354 352 351 349 353 357 360 4 10 3 360 1 359 1 357 356 354 355 359 3 1
36 65 98 87 102 136 125 137 197 271 82 14 334 353 345 346 5 6 355 5 8 13 6 360 356 358 1 354 356 360 2 7 3 354 357 356 359 2 357 358 1 0 5 360
11 11 61 102 105 64 108 111 207 252 122 329 335 321 339 353 331 325 3 10 18 16 10 6 5 8 3 359 359 3 359 4 353 347 350 352 355 353 2 5 7 11 9 11
52 42 52 53 105 118 36 148 35 295 290 313 316 338 332 353 44 31 21 18 17 14 12 11 7 8 8 6 3 4 358 356 349 352 346 349 352 355 8 8 11 13 9 16
87 117 110 26 124 219 252 272 349 308 314 326 324 340 346 50 44 33 20 18 18 17 14 10 10 8 13 10 8 5 356 348 354 348 346 353 354 356 5 10 15 10 12 18
137 162 121 194 165 170 39 10 359 334 299 307 317 2 76 79 48 43 32 22 18 22 15 11 13 13 11 7 9 4 358 3 353 351 350 352 357 3 16 17 16 11 14 17
242 222 102 72 94 138 71 10 334 328 5 78 73 66 70 70 56 48 36 23 18 17 13 13 13 9 6 5 8 7 360 1 359 0 3 360 357 359 12 25 16 17 20 16
194 163 145 136 105 40 358 342 11 81 73 68 80 70 58 54 56 59 48 26 19 17 14 14 11 8 4 6 7 7 6 6 5 3 8 8 7 9 7 20 30 37 35 36